ラーソン彗星

P/2007 R1 ( Larson )

English version
Home page
Updated on July 21, 2011

---------------------------------------------------------------------

・ プロフィール

発見日 2007年9月4日
発見光度 18.2等
発見者 S. Larson (Mt. Lemmon Survey)

・ 写真集

・ 軌道要素

Epoch 2007 Aug. 8.0 TT = JDT 2454320.5
T 2007 Aug. 22.99054 TT                                 MPC
q   4.3518632            (2000.0)            P               Q
n   0.06667790     Peri.  175.04781     +0.99833137     +0.05760729
a   6.0230266      Node   181.66539     -0.05656213     +0.96166539
e   0.2774624      Incl.    7.87760     -0.01162719     +0.26810647
P  14.8
From 215 observations 2007 Sept. 4-2009 Feb. 16, mean residual 0".6.

・ 光度変化

        m1 = 9.0 + 5 logΔ + 10.0 log r

---------------------------------------------------------------------

軌道要素はM.P.E.C. 2011-N13に掲載されたものです。
光度グラフはComet for Windowsで作成したものです。

---------------------------------------------------------------------

Copyright(C) Seiichi Yoshida (comet@aerith.net). All rights reserved.